Showing default

ICEYE-X13, 48916

Orbit data source: Space-Track

ICEYE-X13, 48916 is a payload satellite owned by ICEYE (FI) in SSO that was launched on Wed, 30 Jun 2021 UTC via an FALCON 9 launch vehicle from the Air Force Eastern Test Range (AFETR). Payload-class satellites include a variety of spacecraft equipped with specific instruments for various scientific and technological missions. These include communications satellites like Starlink; space stations such as the ISS; scientific satellites like the Hubble; Earth observation satellites from companies like Planet Labs, Umbra, and HawkEye 360; GPS; miniature CubeSats for education and research; and military/defense satellites.

Loading next visibility...
Identifier
48916, 2021-059AP
Orbit
SSO
Country
Flag of FIFI / FIN
Related business
Manufacturer
ICEYE
Mission
Operational Commercial Radar Imaging
Bus & Motor
ICEYE, Unknown motor
Mass
80 kg wet, 80 kg dry
Launch date (UTC)
2021-06-30 (4 years ago)
Launch vehicle
FALCON 9
Launch site
Air Force Eastern Test Range (AFETR)
Object type
Payload
Rocket body
Debris
Shape & HBR
Box + 1 Pan, 1.6 m
Radar Cross Section
1.837 m², Medium (>0.1 m² and < 1m²)

Expand to show TLE details & history
Last TLE update: 20 hours ago

TLE from 20 hours ago
0 ICEYE-X13
1 48916U 21059AP  25261.28250674  .00076218  00000-0  59306-3 0  9995
2 48916  97.6601  72.7068 0002783 275.6958  84.3987 15.71512278235436
Epoch: 2025-09-18T06:46Z
TLE epoch observation values (Epoch: 2025-09-18T06:46:48.582Z)
Latitude
0.00001°
Longitude
-26.44196°
Altitude
357.544 km
Speed
7.695 km/s
True Right ascension
04h 50m 49s
True Declination
0° 00' 00"
Sunlit
Object was in daylight at epoch
Visualization orbit readout
Latitude
Unknown
Longitude
Unknown
Altitude
Unknown
Speed
Unknown
Apparent Right ascension
Unknown
Apparent Declination
Unknown
Sunlit
N/A
Visualization observer readout
Local Sidereal Time
19:18:47
Azimuth
Unknown
Elevation
Unknown
Doppler factor
Unknown
Orbital elements
Apogee altitude
353.356 km
Perigee altitude
349.61 km
Semi-major axis
6,729.62 km
Eccentricity
0.00028
Inclination
97.6601°
RAAN
72.7068°
Arg. of periapsis
275.6958°
True anomaly
84.43044°
Mean anomaly
84.3987°
Eccentric anomaly
84.41457°
Mean motion
3.93149 °/min
Orbital period
91.57 mins
BSTAR
0.00059306
Loading maneuver chart data...
Computing Atmospheric mass density...
Loading historical data...
Loading historical data...
Loading historical data...
Loading historical data...
Loading historical data...
Loading historical data...
Loading historical data...

Documentation

Showing up to 5 results
|